Tracking 28790 objects as of 19-Apr-2024
HD Live streaming from Space Station
objects crossing your sky now

BREEZE-M DEB

Track BREEZE-M DEB now!
10-day predictions


NORAD ID: 36594
Int'l Code: 2010-025C
Perigee: 319.2 km
Apogee: 15,686.9 km
Inclination: 49.4 °
Period: 285.8 minutes
Semi major axis: 14374 km
RCS: 5.977 m2 (large)
Launch date: June 3, 2010
Source: Commonwealth of Independent States (former USSR) (CIS)
Launch site: TYURATAM MISSILE AND SPACE COMPLEX (TTMTR)

Note: This is SATELLITE DEBRIS
Your satellite tracking list
Your tracking list is empty




NASA's NSSDC Master Catalog

Two Line Element Set (TLE):
1 36594U 10025C   24109.43709445  .00006810  00000-0  15600-2 0  9996
2 36594  49.3581 205.1602 5345654 208.8781 106.5146  5.03774248248985
Source of the keplerian elements: AFSPC